sat.trackr.live / text

‹ back to catalog

STARLINK-3195

NORAD 49762 · 2021-115AQ

PAYLOAD ACTIVE UNKNOWN

§ Identity

Operator
Country
US
Launch date
2021-12-02
Launch site
AFETR
Launch vehicle
Mass (kg)
RCS (m²)

Purposes: comms

External: N2YO · Heavens-Above · Gunter

§ Orbital elements

Epoch: 2026-05-24T18:03:59.480064Z

Period
95.44 min
Inclination
53.2127°
Eccentricity
0.0001338
Mean motion
15.08834675 rev/d
Perigee alt
538.8 km
Apogee alt
540.7 km
Semi-major
6,917.9 km
B*
9.2265e-6
RAAN
157.6600°
Arg perigee
77.0148°
Mean anomaly
283.0994°
Rev number
24,716

§ Raw data

STARLINK-31951 49762U 21115AQ  26144.75277176 -.00000141  00000+0  92265-5 0  99922 49762  53.2127 157.6600 0001338  77.0148 283.0994 15.08834675247169

JSON: /api/v1/satellites/49762 · /tle

For live sub-satellite position, see the globe view (requires WebGL).

§ Visibility from observer

Set your observer location to see the next 7 days of passes ≥ 10°. The values pass through the URL so the page stays shareable.

No JS? Fill the form by hand. The geolocation button needs JavaScript.